Date String (YYYY-MM-DD hh:mm:ss) UTC,Instrument flags,absolute air pressure of the measurement (hPa),sample flow rate (lpm),inlet stack bypass flow (lpm),air temperature of the measurement (°C),ambient temperature measured by the external sensor (°C),aerosol sample conditioner tube jacket temperature (°C),OPC LED temperature (°C),internal box temperature (°C),relative humidity of the measurement (%),span deviation,mass concentration of particles derived from Lorenz-Mie calculation of OPC scattering (μg/m³),mass concentration of particles derived from Lorenz-Mie calculation of OPC scattering (μg/m³),mass concentration of particles derived from Lorenz-Mie calculation of OPC scattering (μg/m³)
DateTimeUTC,F1_M11,P_M11,Q1_M11,Q2_M11,T1_M11,T2_M11,T3_M11,T4_M11,T5_M11,U1_M11,ZSPAN_M11,X2_M11,X0_M11,X1_M11
2023-08-27 19:00:00,SystemResetWarning,0835.0,5.01,000.00,030.3,024.4,000.0,037.9,030.0,33.5,0001.5,0007.40,0011.45,0007.02
2023-08-27 19:01:00,SystemResetWarning,0835.0,5.01,000.00,030.2,024.4,000.0,037.9,029.8,34.2,0001.2,0007.36,0011.48,0006.99
2023-08-27 19:02:00,SystemResetWarning,0835.0,5.01,000.00,030.0,024.7,000.0,037.9,029.7,34.6,0001.0,0007.36,0011.17,0006.98
2023-08-27 19:03:00,SystemResetWarning,0834.6,4.97,000.00,029.9,025.1,000.0,037.9,029.8,35.1,0001.0,0007.36,0010.80,0006.96
2023-08-27 19:04:00,SystemResetWarning,0834.5,5.04,000.00,029.9,025.5,000.0,038.0,030.0,33.8,0001.6,0007.37,0010.80,0006.97
2023-08-27 19:05:00,SystemResetWarning,0834.5,4.95,000.00,030.0,026.0,000.0,038.0,030.2,34.6,0001.5,0007.34,0010.81,0006.96
2023-08-27 19:06:00,SystemResetWarning,0834.5,5.05,000.00,030.1,026.3,000.0,038.0,030.3,34.7,0001.0,0007.27,0010.72,0006.90
2023-08-27 19:07:00,SystemResetWarning,0834.5,4.95,000.00,030.2,026.0,000.0,037.9,030.3,32.8,0000.8,0007.26,0011.09,0006.90
2023-08-27 19:08:00,SystemResetWarning,0834.4,5.03,000.00,030.2,024.8,000.0,037.8,030.0,31.8,0001.2,0007.30,0011.15,0006.92
2023-08-27 19:09:00,SystemResetWarning,0834.4,5.00,000.00,030.2,024.3,000.0,037.7,029.9,32.1,0000.8,0007.27,0011.04,0006.92
2023-08-27 19:10:00,SystemResetWarning,0834.4,5.00,000.00,030.1,024.5,000.0,037.7,029.7,33.7,0000.9,0007.21,0010.45,0006.91
2023-08-27 19:11:00,SystemResetWarning,0834.3,4.99,000.00,030.0,024.9,000.0,037.8,029.8,33.8,0001.1,0007.19,0010.43,0006.89
2023-08-27 19:12:00,SystemResetWarning,0834.3,5.00,000.00,029.9,025.3,000.0,037.8,029.9,33.7,0001.5,0007.14,0010.35,0006.85
2023-08-27 19:13:00,SystemResetWarning,0834.4,5.00,000.00,029.9,025.7,000.0,037.8,030.0,33.7,0001.8,0007.06,0010.20,0006.79
2023-08-27 19:14:00,SystemResetWarning,0834.4,5.00,000.00,029.9,026.1,000.0,037.9,030.1,33.8,0001.6,0007.02,0010.10,0006.76
2023-08-27 19:15:00,SystemResetWarning,0834.4,4.99,000.00,029.9,026.3,000.0,037.9,030.2,33.0,0001.4,0007.01,0010.05,0006.74
2023-08-27 19:16:00,SystemResetWarning,0834.3,4.99,000.00,029.9,025.4,000.0,037.7,030.0,32.8,0001.1,0007.00,0009.98,0006.72
2023-08-27 19:17:00,SystemResetWarning,0834.5,5.01,000.00,029.8,024.4,000.0,037.6,029.7,34.0,0001.6,0007.02,0010.00,0006.72
2023-08-27 19:18:00,SystemResetWarning,0834.3,5.01,000.00,029.7,024.3,000.0,037.6,029.6,34.1,0001.5,0007.00,0009.66,0006.71
2023-08-27 19:19:00,SystemResetWarning,0834.4,4.99,000.00,029.5,024.6,000.0,037.6,029.6,35.0,0001.3,0006.95,0009.69,0006.67
2023-08-27 19:20:00,SystemResetWarning,0834.3,5.03,000.00,029.5,025.0,000.0,037.6,029.8,35.1,0001.5,0006.95,0009.77,0006.64
2023-08-27 19:21:00,SystemResetWarning,0834.3,4.96,000.00,029.7,025.4,000.0,037.6,029.9,35.5,0000.9,0006.95,0009.74,0006.63
2023-08-27 19:22:00,SystemResetWarning,0834.4,5.03,000.00,029.9,025.9,000.0,037.6,030.2,36.2,0000.6,0006.94,0009.75,0006.60
2023-08-27 19:23:00,SystemResetWarning,0834.4,5.00,000.00,030.2,026.2,000.0,037.7,030.4,35.0,-000.2,0006.93,0009.74,0006.59
2023-08-27 19:24:00,SystemResetWarning,0834.5,4.97,000.00,030.5,026.0,000.0,037.6,030.4,34.4,-000.2,0006.96,0009.78,0006.59
2023-08-27 19:25:00,SystemResetWarning,0834.4,5.01,000.00,030.7,024.7,000.0,037.6,030.1,33.7,-000.0,0006.97,0009.80,0006.59
2023-08-27 19:26:00,SystemResetWarning,0834.4,5.01,000.00,030.7,024.2,000.0,037.6,029.9,33.9,-000.1,0006.94,0009.74,0006.58
2023-08-27 19:27:00,SystemResetWarning,0834.5,5.00,000.00,030.6,024.3,000.0,037.6,029.8,33.7,-000.2,0006.92,0009.70,0006.56
2023-08-27 19:28:00,SystemResetWarning,0834.5,5.00,000.00,030.5,024.7,000.0,037.8,029.8,33.4,-000.4,0006.89,0009.67,0006.53
2023-08-27 19:29:00,SystemResetWarning,0834.5,5.00,000.00,030.4,025.1,000.0,037.9,029.9,33.7,-000.2,0006.91,0009.93,0006.52
2023-08-27 19:30:00,SystemResetWarning,0834.5,5.01,000.00,030.4,025.6,000.0,038.0,030.0,33.0,0000.2,0006.92,0009.83,0006.52
2023-08-27 19:31:00,SystemResetWarning,0834.7,5.00,000.00,030.4,026.0,000.0,038.0,030.2,32.4,0000.5,0006.88,0009.74,0006.49
2023-08-27 19:32:00,SystemResetWarning,0834.8,5.00,000.00,030.4,026.2,000.0,038.1,030.2,32.8,0000.7,0006.85,0009.69,0006.46
2023-08-27 19:33:00,SystemResetWarning,0834.5,4.98,000.00,030.4,025.3,000.0,037.9,030.1,32.9,0000.6,0006.81,0009.61,0006.44
2023-08-27 19:34:00,SystemResetWarning,0834.5,5.01,000.00,030.4,024.3,000.0,037.8,029.9,33.3,0000.9,0006.76,0009.47,0006.42
2023-08-27 19:35:00,SystemResetWarning,0834.4,5.01,000.00,030.3,024.2,000.0,037.8,029.8,33.5,0001.2,0006.74,0009.64,0006.41
2023-08-27 19:36:00,SystemResetWarning,0834.3,5.01,000.00,030.1,024.5,000.0,037.9,029.7,32.7,0001.1,0006.73,0009.72,0006.41
2023-08-27 19:37:00,SystemResetWarning,0834.4,5.00,000.00,030.0,024.9,000.0,037.9,029.7,32.6,0001.1,0006.74,0009.86,0006.39
2023-08-27 19:38:00,SystemResetWarning,0834.3,5.00,000.00,029.9,025.3,000.0,037.9,029.9,33.9,0000.9,0006.74,0009.89,0006.36
2023-08-27 19:39:00,SystemResetWarning,0834.3,4.98,000.00,029.9,025.8,000.0,037.9,030.0,34.8,0000.9,0006.73,0010.22,0006.35
2023-08-27 19:40:00,SystemResetWarning,0834.3,5.02,000.00,030.0,026.1,000.0,037.9,030.1,34.3,0001.2,0006.63,0010.02,0006.30
2023-08-27 19:41:00,SystemResetWarning,0834.4,5.00,000.00,030.0,026.4,000.0,037.9,030.2,34.1,0000.6,0006.53,0009.90,0006.22
2023-08-27 19:42:00,SystemResetWarning,0834.5,4.98,000.00,030.0,025.6,000.0,037.8,030.0,33.9,0000.1,0006.45,0009.74,0006.15
2023-08-27 19:43:00,SystemResetWarning,0834.2,5.01,000.00,030.0,024.5,000.0,037.7,029.8,32.9,0000.1,0006.43,0009.71,0006.14
2023-08-27 19:44:00,SystemResetWarning,0834.3,5.02,000.00,029.9,024.3,000.0,037.6,029.7,32.3,0000.0,0006.42,0009.72,0006.13
2023-08-27 19:45:00,SystemResetWarning,0834.3,5.00,000.00,029.7,024.6,000.0,037.6,029.7,32.1,-000.0,0006.39,0009.66,0006.10
2023-08-27 19:46:00,SystemResetWarning,0834.3,5.00,000.00,029.6,025.0,000.0,037.7,029.7,32.7,-000.2,0006.36,0009.58,0006.07
2023-08-27 19:47:00,SystemResetWarning,0834.3,5.00,000.00,029.6,025.4,000.0,037.7,029.8,32.6,0000.1,0006.33,0009.45,0006.04
2023-08-27 19:48:00,SystemResetWarning,0834.3,5.00,000.00,029.6,025.8,000.0,037.7,030.0,33.1,0000.2,0006.25,0009.29,0005.99
2023-08-27 19:49:00,SystemResetWarning,0834.3,5.00,000.00,029.6,026.2,000.0,037.7,030.1,33.4,0000.5,0006.20,0009.21,0005.95
2023-08-27 19:50:00,SystemResetWarning,0834.3,5.00,000.00,029.6,026.1,000.0,037.6,030.1,33.0,0000.6,0006.15,0008.86,0005.92
2023-08-27 19:51:00,SystemResetWarning,0834.4,4.98,000.00,029.5,024.9,000.0,037.5,029.7,33.0,0000.3,0006.17,0008.77,0005.93
2023-08-27 19:52:00,SystemResetWarning,0834.3,5.01,000.00,029.4,024.2,000.0,037.4,029.5,33.3,0000.5,0006.22,0008.93,0005.97
2023-08-27 19:53:00,SystemResetWarning,0834.3,5.01,000.00,029.3,024.3,000.0,037.4,029.4,34.0,0000.4,0006.27,0009.12,0006.02
2023-08-27 19:54:00,SystemResetWarning,0834.5,4.99,000.00,029.2,024.6,000.0,037.4,029.4,34.6,0000.0,0006.30,0009.15,0006.06
2023-08-27 19:55:00,SystemResetWarning,0834.2,4.99,000.00,029.1,025.0,000.0,037.4,029.6,34.4,-000.3,0006.33,0009.17,0006.09
2023-08-27 19:56:00,SystemResetWarning,0834.4,5.01,000.00,029.1,025.5,000.0,037.4,029.7,33.4,-000.3,0006.45,0009.35,0006.18
2023-08-27 19:57:00,SystemResetWarning,0834.2,5.00,000.00,029.1,025.9,000.0,037.4,029.9,32.5,-000.6,0006.56,0009.45,0006.29
2023-08-27 19:58:00,SystemResetWarning,0834.2,4.99,000.00,029.1,026.2,000.0,037.4,029.9,32.4,-000.5,0006.66,0009.47,0006.38
2023-08-27 19:59:00,SystemResetWarning,0834.2,4.99,000.00,029.1,025.4,000.0,037.3,029.8,31.6,-000.7,0006.75,0009.52,0006.49
